Weather Roundup
Issued by NWS

Home | Current Version | Previous Version | Text Only | Print | Product List | Glossary On
Versions: 1 2 3 4 5 6 7 8 9 10 11 12 13 14 15 16 17 18 19 20 21 22 23 24 25 26 27 28 29 30 31 32 33 34 35 36 37 38 39 40 41 42 43 44 45 46 47 48 49 50
000
NZUS93 KARX 300910
HRRWXR

CURRENT HOURLY OBSERVATIONS ACROSS
MUCH OF THE UPPER MISSISSIPPI VALLEY
NATIONAL WEATHER SERVICE LA CROSSE WI
400 AM CDT THU MAR 30 2017


...SOUTHEAST MINNESOTA...


CITY           SKY/WX    TMP DP  RH WIND       PRES   REMARKS
ROCHESTER      CLOUDY    36  34  92 E18       29.91F WCI  26
ROCHESTER/MAYO CLOUDY    37  36  94 NE14G21   29.93F WCI  28
WINONA         CLOUDY    36  34  93 E8        29.97F WCI  29
AUSTIN         RAIN      37  34  87 E14       29.87F WCI  29
ALBERT LEA     LGT RAIN  36  36 100 E16G24    29.89F WCI  26
DODGE CENTER   LGT RAIN  36  34  93 NE17      29.92F WCI  25
PRESTON        CLOUDY    35  33  91 E14       29.90F WCI  26
OWATONNA       LGT RAIN  37  34  87 E17       29.93F WCI  28
FARIBAULT      DRIZZLE   37  36  93 NE9G16    29.96F WCI  31
$$

...ELSEWHERE IN MINNESOTA...


CITY           SKY/WX    TMP DP  RH WIND       PRES   REMARKS
MINNEAPOLIS    CLOUDY    40  36  86 NE12      30.00F WCI  33
INTNL FALLS    CLEAR     28  24  85 SE5       30.04F WCI  23
DULUTH         CLOUDY    30  29  96 E10       30.06F WCI  21
RED WING       CLOUDY    39  36  87 E8G17     29.98F WCI  34
REDWOOD FALLS  CLOUDY    40  36  86 E8        29.97F WCI  34
MANKATO        CLOUDY    39  35  86 NE14      29.95F WCI  31
WORTHINGTON    CLOUDY    37  36  96 NE16      29.89F WCI  28
FAIRMONT       LGT RAIN  37  35  92 E17       29.90F WCI  27
$$

...SOUTHWEST WISCONSIN...


CITY           SKY/WX    TMP DP  RH WIND       PRES   REMARKS
LA CROSSE      LGT RAIN  39  35  86 E8        29.95F WCI  33
PRAIRIE DU CHI CLOUDY    38  37  97 NE8G16    29.86F WCI  32
BOSCOBEL       CLOUDY    40 N/A N/A E10G18    29.89F WCI  33
LONE ROCK      LGT RAIN  39  35  86 E15       29.90F FOG     WCI  31
PLATTEVILLE    CLOUDY    40  40 100 E22G28    29.83F WCI  30
FORT MC COY    LGT RAIN  35  34  96 E9        29.96F WCI  28
CAMP DOUGLAS   LGT RAIN  36  34  93 NE12      29.95F WCI  27
MAUSTON-NEW LI RAIN      36  35  94 E3        29.96F
VIROQUA        CLOUDY    36  35  97 E20G25    29.89F WCI  25
WIS DELLS      LGT RAIN  36  35  96 NE12      29.93F WCI  28
$$

...ELSEWHERE IN WISCONSIN...


CITY           SKY/WX    TMP DP  RH WIND       PRES   REMARKS
MILWAUKEE      RAIN      38  34  85 E17       29.98F FOG     WCI  28
MADISON        LGT RAIN  38  36  92 E18       29.91F WCI  28
GREEN BAY      LGT RAIN  36  36 100 NE7       30.07F WCI  30
EAU CLAIRE     CLOUDY    37  34  89 NE15      30.00F WCI  28
BLACK RVR FLS  DRIZZLE   35  35 100 NE12      29.98F WCI  27
MEDFORD        FLURRIES  32  29  88 NE8       30.02F WCI  25
WAUSAU         LGT SNOW  33  31  92 E10       30.02F FOG     WCI  25
WIS RAPIDS     FLURRIES  35  35 100 E8        30.03F WCI  29
MARSHFIELD     FLURRIES  34  32  92 E12       30.00F WCI  25
RICE LAKE      CLOUDY    38  32  77 CALM      30.05F
$$

...NORTHEAST IOWA...


CITY           SKY/WX    TMP DP  RH WIND       PRES   REMARKS
WATERLOO       CLOUDY    41  38  89 E14       29.79F
DUBUQUE        LGT RAIN  40  38  93 E21G29    29.80F WCI  30
DECORAH        CLOUDY    37  36  93 NE13G18   29.86F WCI  29
MASON CITY     CLOUDY    38  36  92 NE14      29.86F FOG     WCI  30
CHARLES CITY   CLOUDY    39  39 100 E17G24    29.83F WCI  30
OELWEIN        CLOUDY    41  39  93 E21       29.79F
$$

...ELSEWHERE IN IOWA...


CITY           SKY/WX    TMP DP  RH WIND       PRES   REMARKS
DES MOINES     CLOUDY    44  40  85 E16G23    29.70F
IOWA CITY      CLOUDY    44  40  85 E15G26    29.75F
FORT DODGE     CLOUDY    39  36  87 E16       29.80F WCI  30
MARSHALLTOWN   CLOUDY    41  40  96 E15       29.75F
CEDAR RAPIDS   LGT RAIN  41  41 100 E22       29.73F
$$

...NORTHERN ILLINOIS...


CITY           SKY/WX    TMP DP  RH WIND       PRES   REMARKS
CHICAGO-OHARE  RAIN      42  39  89 E13       29.90F FOG
CHICAGO-MIDWAY LGT RAIN  42  41  96 E20G29    29.87F FOG
MOLINE         CLOUDY    43  40  89 E23G29    29.74F
ROCKFORD       LGT RAIN  42  38  85 E15G23    29.86F
PEORIA         LGT RAIN  45  42  89 NE22G30   29.73F
$$

NOTE: "FAIR" INDICATES FEW OR NO CLOUDS BELOW 12,000 FEET WITH NO
SIGNIFICANT WEATHER AND/OR OBSTRUCTIONS TO VISIBILITY. WIND
SPEEDS ARE IN MILES-PER-HOUR.




USA.gov is the U.S. government's official web portal to all federal, state and local government web resources and services.